• In Germany
  • List of Countries
  • For 7 days
  • Water Temperature
  • Satellite Maps
  • Weather Map
  • Weather Widgets
  • user-avatar
    Login

    Hourly Weather Vitebsk

    Today, 17 August, Thursday

    Time Temperature Precipitation Wind Pressure Humidity
    00:00 +18°C° 0 mm 3 mps 752 mmHg 90%
    01:00 +17°C° 0 mm 3 mps 752 mmHg 90%
    02:00 +17°C° 0 mm 3 mps 752 mmHg 91%
    03:00 +17°C° 0.3 mm 3 mps 752 mmHg 92%
    04:00 +16°C° 0.3 mm 3 mps 752 mmHg 94%
    05:00 +16°C° 0.3 mm 3 mps 752 mmHg 95%
    06:00 +17°C° 0.1 mm 3 mps 752 mmHg 91%
    07:00 +19°C° 0.1 mm 3 mps 752 mmHg 88%
    08:00 +20°C° 0 mm 4 mps 752 mmHg 84%
    09:00 +22°C° 0 mm 4 mps 752 mmHg 78%
    10:00 +23°C° 0 mm 4 mps 752 mmHg 72%
    11:00 +25°C° 0 mm 4 mps 752 mmHg 67%
    12:00 +26°C° 0.3 mm 4 mps 752 mmHg 65%
    13:00 +27°C° 0.3 mm 4 mps 752 mmHg 64%
    14:00 +27°C° 0.3 mm 4 mps 751 mmHg 63%
    15:00 +27°C° 0.2 mm 3 mps 751 mmHg 67%
    16:00 +26°C° 0.2 mm 3 mps 751 mmHg 70%
    17:00 +26°C° 0.2 mm 2 mps 751 mmHg 74%
    18:00 +24°C° 0.2 mm 2 mps 751 mmHg 77%
    19:00 +23°C° 0.2 mm 2 mps 751 mmHg 80%
    20:00 +21°C° 0.2 mm 2 mps 751 mmHg 83%
    21:00 +20°C° 0.3 mm 2 mps 751 mmHg 85%
    22:00 +19°C° 0.3 mm 2 mps 751 mmHg 87%
    23:00 +19°C° 0.3 mm 2 mps 751 mmHg 89%

    Tomorrow, 18 August, Friday

    Time Temperature Precipitation Wind Pressure Humidity
    00:00 +18°C° 0.3 mm 2 mps 751 mmHg 90%
    01:00 +18°C° 0.3 mm 2 mps 751 mmHg 91%
    02:00 +18°C° 0.3 mm 2 mps 751 mmHg 92%
    03:00 +17°C° 0.2 mm 2 mps 751 mmHg 92%
    04:00 +17°C° 0.2 mm 2 mps 750 mmHg 92%
    05:00 +17°C° 0.2 mm 2 mps 750 mmHg 93%
    06:00 +18°C° 0.1 mm 2 mps 750 mmHg 90%
    07:00 +20°C° 0.1 mm 2 mps 751 mmHg 87%
    08:00 +21°C° 0.1 mm 2 mps 751 mmHg 84%
    09:00 +24°C° 0 mm 3 mps 751 mmHg 77%
    10:00 +25°C° 0 mm 3 mps 751 mmHg 71%
    11:00 +27°C° 0 mm 3 mps 751 mmHg 64%
    12:00 +28°C° 0.1 mm 4 mps 750 mmHg 61%
    13:00 +28°C° 0.1 mm 4 mps 750 mmHg 58%
    14:00 +29°C° 0.1 mm 4 mps 750 mmHg 56%
    15:00 +29°C° 0.8 mm 4 mps 750 mmHg 61%
    16:00 +28°C° 0.8 mm 3 mps 750 mmHg 67%
    17:00 +27°C° 0.8 mm 2 mps 750 mmHg 72%
    18:00 +26°C° 0.2 mm 2 mps 750 mmHg 75%
    19:00 +24°C° 0.2 mm 2 mps 750 mmHg 77%
    20:00 +23°C° 0.2 mm 2 mps 750 mmHg 80%
    21:00 +21°C° 0.3 mm 2 mps 750 mmHg 80%
    22:00 +20°C° 0.3 mm 3 mps 750 mmHg 80%
    23:00 +20°C° 0.3 mm 3 mps 750 mmHg 80%

    Day after tomorrow, 19 August, Saturday

    Time Temperature Precipitation Wind Pressure Humidity
    00:00 +19°C° 0.1 mm 3 mps 750 mmHg 80%
    01:00 +19°C° 0.1 mm 3 mps 750 mmHg 79%
    02:00 +18°C° 0.1 mm 3 mps 749 mmHg 79%
    03:00 +18°C° 0 mm 3 mps 749 mmHg 79%
    04:00 +17°C° 0 mm 3 mps 749 mmHg 79%
    05:00 +17°C° 0 mm 3 mps 749 mmHg 80%
    06:00 +19°C° 0 mm 3 mps 749 mmHg 77%
    07:00 +20°C° 0 mm 3 mps 750 mmHg 74%
    08:00 +22°C° 0 mm 4 mps 750 mmHg 71%
    09:00 +23°C° 0 mm 4 mps 750 mmHg 66%
    10:00 +26°C° 0 mm 4 mps 750 mmHg 61%
    11:00 +28°C° 0 mm 4 mps 750 mmHg 56%
    12:00 +29°C° 0 mm 4 mps 750 mmHg 52%
    13:00 +29°C° 0 mm 4 mps 750 mmHg 49%
    14:00 +30°C° 0 mm 4 mps 750 mmHg 45%
    15:00 +30°C° 0 mm 4 mps 749 mmHg 49%
    16:00 +29°C° 0 mm 3 mps 749 mmHg 53%
    17:00 +29°C° 0 mm 3 mps 748 mmHg 57%
    18:00 +27°C° 0 mm 3 mps 748 mmHg 61%
    19:00 +25°C° 0 mm 3 mps 748 mmHg 65%
    20:00 +22°C° 0 mm 3 mps 748 mmHg 70%
    21:00 +23°C° 0 mm 4 mps 748 mmHg 65%
    22:00 +23°C° 0 mm 4 mps 748 mmHg 59%
    23:00 +23°C° 0 mm 4 mps 748 mmHg 54%

    20 August, Sunday

    Time Temperature Precipitation Wind Pressure Humidity
    00:00 +23°C° 0 mm 4 mps 748 mmHg 52%
    01:00 +23°C° 0 mm 4 mps 748 mmHg 50%
    02:00 +23°C° 0 mm 4 mps 748 mmHg 48%
    03:00 +22°C° 0 mm 4 mps 748 mmHg 49%
    04:00 +21°C° 0 mm 4 mps 748 mmHg 51%
    05:00 +21°C° 0 mm 4 mps 748 mmHg 53%
    06:00 +21°C° 0 mm 4 mps 748 mmHg 56%
    07:00 +21°C° 0 mm 4 mps 748 mmHg 60%
    08:00 +22°C° 0 mm 4 mps 748 mmHg 63%
    09:00 +23°C° 0 mm 4 mps 748 mmHg 61%
    10:00 +26°C° 0 mm 4 mps 748 mmHg 59%
    11:00 +27°C° 0 mm 4 mps 749 mmHg 56%
    12:00 +28°C° 0 mm 4 mps 748 mmHg 55%
    13:00 +28°C° 0 mm 4 mps 748 mmHg 54%
    14:00 +29°C° 0 mm 4 mps 748 mmHg 53%
    15:00 +28°C° 0 mm 4 mps 748 mmHg 56%
    16:00 +28°C° 0 mm 4 mps 748 mmHg 59%
    17:00 +27°C° 0 mm 4 mps 748 mmHg 61%
    18:00 +26°C° 0 mm 4 mps 748 mmHg 62%
    19:00 +25°C° 0 mm 4 mps 748 mmHg 62%
    20:00 +23°C° 0 mm 5 mps 748 mmHg 62%
    21:00 +23°C° 0 mm 4 mps 748 mmHg 61%
    22:00 +22°C° 0 mm 4 mps 748 mmHg 60%
    23:00 +22°C° 0 mm 4 mps 747 mmHg 59%

    21 August, Monday

    Time Temperature Precipitation Wind Pressure Humidity
    00:00 +21°C° 0 mm 4 mps 747 mmHg 62%
    01:00 +20°C° 0 mm 4 mps 747 mmHg 65%
    02:00 +19°C° 0 mm 3 mps 747 mmHg 68%
    03:00 +19°C° 0 mm 3 mps 747 mmHg 71%
    04:00 +18°C° 0 mm 3 mps 746 mmHg 74%
    05:00 +17°C° 0 mm 3 mps 746 mmHg 77%
    06:00 +19°C° 0 mm 3 mps 746 mmHg 74%
    07:00 +20°C° 0 mm 3 mps 746 mmHg 72%
    08:00 +21°C° 0 mm 4 mps 746 mmHg 69%
    09:00 +22°C° 0 mm 4 mps 746 mmHg 66%
    10:00 +25°C° 0 mm 4 mps 745 mmHg 63%
    11:00 +26°C° 0 mm 4 mps 745 mmHg 60%
    12:00 +27°C° 0 mm 4 mps 745 mmHg 58%
    13:00 +27°C° 0 mm 4 mps 744 mmHg 57%
    14:00 +28°C° 0 mm 3 mps 744 mmHg 55%
    15:00 +27°C° 0.4 mm 3 mps 744 mmHg 62%
    16:00 +26°C° 0.4 mm 3 mps 744 mmHg 68%
    17:00 +25°C° 0.4 mm 3 mps 744 mmHg 75%
    18:00 +22°C° 1.6 mm 3 mps 744 mmHg 81%
    19:00 +20°C° 1.6 mm 3 mps 744 mmHg 87%
    20:00 +18°C° 1.6 mm 3 mps 743 mmHg 93%
    21:00 +18°C° 0.8 mm 3 mps 743 mmHg 95%
    22:00 +17°C° 0.8 mm 3 mps 743 mmHg 96%
    23:00 +17°C° 0.8 mm 3 mps 743 mmHg 97%

    22 August, Tuesday

    Time Temperature Precipitation Wind Pressure Humidity
    00:00 +17°C° 0.6 mm 3 mps 743 mmHg 97%
    01:00 +16°C° 0.6 mm 3 mps 743 mmHg 97%
    02:00 +16°C° 0.6 mm 3 mps 743 mmHg 97%
    03:00 +16°C° 0.6 mm 3 mps 743 mmHg 97%
    04:00 +14°C° 0.6 mm 3 mps 743 mmHg 96%
    05:00 +14°C° 0.6 mm 3 mps 742 mmHg 96%
    06:00 +14°C° 0.5 mm 3 mps 743 mmHg 96%
    07:00 +14°C° 0.5 mm 3 mps 743 mmHg 95%
    08:00 +14°C° 0.5 mm 4 mps 743 mmHg 94%
    09:00 +14°C° 0.3 mm 4 mps 743 mmHg 92%
    10:00 +15°C° 0.3 mm 4 mps 743 mmHg 90%
    11:00 +15°C° 0.3 mm 4 mps 743 mmHg 88%
    12:00 +17°C° 0.1 mm 3 mps 743 mmHg 84%
    13:00 +18°C° 0.1 mm 3 mps 743 mmHg 80%
    14:00 +18°C° 0.1 mm 3 mps 743 mmHg 76%
    15:00 +19°C° 0 mm 3 mps 743 mmHg 74%
    16:00 +19°C° 0 mm 2 mps 743 mmHg 73%
    17:00 +19°C° 0 mm 2 mps 743 mmHg 71%
    18:00 +18°C° 0 mm 2 mps 743 mmHg 77%
    19:00 +16°C° 0 mm 1 mps 743 mmHg 84%
    20:00 +14°C° 0 mm 1 mps 743 mmHg 90%
    21:00 +14°C° 0 mm 1 mps 743 mmHg 92%
    22:00 +13°C° 0 mm 1 mps 744 mmHg 93%
    23:00 +13°C° 0 mm 1 mps 744 mmHg 94%
    Show more